星链-32525 (STARLINK-32525)

导读

STARLINK-32525是美国SpaceX公司于2024年11月27日发射的第二代星链低轨通信卫星,隶属于星链第二代全球卫星互联网星座。该卫星运行在约550公里近地轨道,配备增强型相控阵天线与激光星间链路,单星容量超100Gbps,可支持用户终端超1Gbps下载速率,能为全球提供低延迟高速卫星互联网接入,是星链完成全球覆盖部署的重要组成部分。

Basic Information
目录编号:
62121
目录名称:
STARLINK-32525
国际标识:
2024-222H
轨道中心:
EARTH
卫星名称:
星链-32525
卫星全名:
星链-32525 (STARLINK-32525)
卫星状态:
在轨 (已飞行653 天)
发射日期:
2024-11-27 UTC
国别 :
美国 (US)
星等 :
--
This satellite is enrolled in the Space Conjunction Data Service (SCDS) and the current flight risk assessment level is: High Risk
Orbit Information
数据来源 国际轨道数据 AOE轨道数据
星历时间 2026-09-11T14:00:02+0800
6小时前
查看轨道信息
2026-09-06T23:00:00+0800
4天前
查看轨道信息
半长轴 6861.257km 6861.17km
偏心率 0.0001215 0.0001427
轨道倾角 43.001° 43.004°
近地点辐角 279.245° 243.881°
升交点赤经 167.962° 194.088°
平近点角 354.471° 125.748°
近地点 482.286km 482.053km
远地点 483.954km 484.013km
周期 94.268分钟 94.266分钟
每日圈数 15.275565 15.275856
Detailed Information
固有亮度:
5
最大亮度:
2.5
卫星平台:
Starlink V1.0
覆盖范围:
全球
运营商:
太空探索技术公司
运营商所在国:
美国
制造商(研发单位):
太空探索技术公司
制造商所在国:
美国
使用方式:
暂无
Satellite Introduction
Starlink 计划是 SpaceX 推出的全球卫星互联网项目,通过发射低轨道卫星,为全球尤其是偏远地区提供高速、低延迟的互联网服务。自 2019 年起,Starlink 已部署数千颗卫星,旨在缩小全球数字鸿沟,推动互联网普及。该项目还为军事、航空等行业提供通信支持,带来广泛经济效益。
2D Orbit Map
3D Orbit Map
Orbit Altitude Analysis Chart
Orbit Inclination Analysis Chart
Orbit Comprehensive Analysis Chart
View Comprehensive Chart
Conjunction Data List
Event ID Objects TCA Miss Dist (km) Collision Risk Probability Collision Risk Index (CRI) Action
CDM_260913-062905-941206-212121
2026-09-13T
06:29:12+0000
0.184 km
中距离
6.682246E-4 高风险 0.91
CDM_260913-061105-534306-212121
2026-09-13T
06:11:33+0000
0.305 km
远距离
4.248618E-4 高风险 0.88
CDM_260912-230206-212106-356721
2026-09-12T
23:02:27+0000
0.360 km
远距离
3.134539E-4 高风险 0.85
CDM_260912-125206-193206-212121
2026-09-12T
12:52:57+0000
0.511 km
远距离
1.545644E-4 高风险 0.79
CDM_260912-120406-212106-651721
2026-09-12T
12:04:43+0000
0.597 km
远距离
1.026087E-4 高风险 0.75
CDM_260911-134505-919906-212121
2026-09-11T
13:45:22+0000
0.513 km
远距离
8.63748E-5 中风险 0.74
CDM_260913-061006-212106-646021
2026-09-13T
06:10:20+0000
0.778 km
远距离
4.827994E-5 中风险 0.69
CDM_260913-235105-770306-212121
2026-09-13T
23:51:14+0000
0.608 km
远距离
3.245389E-5 中风险 0.65
CDM_260911-145305-984406-212122
2026-09-11T
14:53:02+0000
1.003 km
极远距离
2.000257E-5 中风险 0.61
CDM_260910-140605-967406-212121
2026-09-10T
14:06:57+0000
1.013 km
极远距离
1.657241E-5 中风险 0.59
Miss Distance Evolution Trend with All Objects
Collision Probability Evolution Trend with All Objects